Hourly Weather Kiszewko

Today, 25 July, Sunday

Time Temperature Precipitation Wind Pressure Humidity
00:00 +19°C° 0 mm 3 mps 755 mmHg 71%
01:00 +18°C° 0 mm 3 mps 755 mmHg 73%
02:00 +18°C° 0 mm 3 mps 755 mmHg 74%
03:00 +18°C° 0 mm 3 mps 754 mmHg 75%
04:00 +18°C° 0 mm 3 mps 754 mmHg 76%
05:00 +19°C° 0 mm 3 mps 754 mmHg 71%
06:00 +21°C° 0 mm 4 mps 754 mmHg 65%
07:00 +23°C° 0 mm 4 mps 754 mmHg 60%
08:00 +25°C° 0 mm 4 mps 754 mmHg 57%
09:00 +26°C° 0 mm 4 mps 754 mmHg 55%
10:00 +27°C° 0 mm 4 mps 754 mmHg 52%
11:00 +28°C° 0 mm 4 mps 754 mmHg 50%
12:00 +29°C° 0 mm 4 mps 754 mmHg 47%
13:00 +29°C° 0 mm 4 mps 754 mmHg 45%
14:00 +29°C° 0 mm 4 mps 754 mmHg 45%
15:00 +29°C° 0 mm 4 mps 754 mmHg 45%
16:00 +29°C° 0 mm 4 mps 754 mmHg 46%
17:00 +28°C° 0 mm 4 mps 754 mmHg 51%
18:00 +26°C° 0 mm 4 mps 754 mmHg 55%
19:00 +25°C° 0 mm 3 mps 754 mmHg 60%
20:00 +24°C° 0 mm 3 mps 754 mmHg 64%
21:00 +22°C° 0 mm 3 mps 754 mmHg 68%
22:00 +20°C° 0 mm 2 mps 754 mmHg 71%
23:00 +20°C° 0 mm 2 mps 754 mmHg 74%

Tomorrow, 26 July, Monday

Time Temperature Precipitation Wind Pressure Humidity
00:00 +19°C° 0 mm 2 mps 754 mmHg 76%
01:00 +19°C° 0 mm 2 mps 754 mmHg 79%
02:00 +18°C° 0 mm 2 mps 754 mmHg 82%
03:00 +18°C° 0 mm 2 mps 754 mmHg 85%
04:00 +18°C° 0 mm 2 mps 754 mmHg 88%
05:00 +19°C° 0 mm 2 mps 754 mmHg 80%
06:00 +21°C° 0 mm 2 mps 754 mmHg 73%
07:00 +24°C° 0 mm 2 mps 754 mmHg 66%
08:00 +25°C° 0 mm 2 mps 754 mmHg 61%
09:00 +26°C° 0 mm 2 mps 754 mmHg 56%
10:00 +28°C° 0 mm 1 mps 754 mmHg 52%
11:00 +29°C° 0 mm 1 mps 753 mmHg 48%
12:00 +30°C° 0 mm 1 mps 753 mmHg 45%
13:00 +31°C° 0 mm 1 mps 753 mmHg 42%
14:00 +31°C° 0 mm 1 mps 753 mmHg 41%
15:00 +31°C° 0 mm 1 mps 753 mmHg 40%
16:00 +31°C° 0 mm 1 mps 753 mmHg 40%
17:00 +30°C° 0 mm 2 mps 752 mmHg 46%
18:00 +29°C° 0 mm 2 mps 752 mmHg 51%
19:00 +27°C° 0 mm 2 mps 752 mmHg 57%
20:00 +26°C° 0 mm 2 mps 752 mmHg 62%
21:00 +25°C° 0 mm 1 mps 753 mmHg 67%
22:00 +23°C° 0 mm 1 mps 753 mmHg 71%
23:00 +23°C° 0 mm 1 mps 753 mmHg 74%

Day after tomorrow, 27 July, Tuesday

Time Temperature Precipitation Wind Pressure Humidity
00:00 +21°C° 0 mm 2 mps 753 mmHg 76%
01:00 +21°C° 0 mm 2 mps 753 mmHg 79%
02:00 +20°C° 0 mm 3 mps 753 mmHg 82%
03:00 +20°C° 0 mm 3 mps 753 mmHg 84%
04:00 +20°C° 0 mm 3 mps 753 mmHg 87%
05:00 +20°C° 0.1 mm 3 mps 754 mmHg 85%
06:00 +21°C° 0.1 mm 3 mps 754 mmHg 83%
07:00 +21°C° 0.1 mm 3 mps 754 mmHg 81%
08:00 +22°C° 0 mm 3 mps 754 mmHg 80%
09:00 +22°C° 0 mm 3 mps 754 mmHg 78%
10:00 +22°C° 0 mm 3 mps 755 mmHg 76%
11:00 +26°C° 0 mm 3 mps 754 mmHg 65%
12:00 +28°C° 0 mm 3 mps 754 mmHg 53%
13:00 +30°C° 0 mm 3 mps 754 mmHg 42%
14:00 +31°C° 0 mm 3 mps 754 mmHg 40%
15:00 +32°C° 0 mm 4 mps 754 mmHg 37%
16:00 +32°C° 0 mm 4 mps 754 mmHg 35%
17:00 +30°C° 0 mm 4 mps 754 mmHg 39%
18:00 +28°C° 0 mm 3 mps 754 mmHg 43%
19:00 +27°C° 0 mm 3 mps 754 mmHg 47%
20:00 +26°C° 0 mm 2 mps 754 mmHg 52%
21:00 +24°C° 0 mm 2 mps 754 mmHg 56%
22:00 +23°C° 0 mm 2 mps 755 mmHg 61%
23:00 +21°C° 0 mm 2 mps 755 mmHg 64%

28 July, Wednesday

Time Temperature Precipitation Wind Pressure Humidity
00:00 +20°C° 0 mm 2 mps 755 mmHg 67%
01:00 +20°C° 0 mm 2 mps 755 mmHg 71%
02:00 +20°C° 0 mm 2 mps 755 mmHg 72%
03:00 +19°C° 0 mm 2 mps 754 mmHg 74%
04:00 +19°C° 0 mm 2 mps 754 mmHg 75%
05:00 +20°C° 0 mm 3 mps 754 mmHg 71%
06:00 +22°C° 0 mm 3 mps 754 mmHg 66%
07:00 +24°C° 0 mm 3 mps 755 mmHg 62%
08:00 +26°C° 0 mm 4 mps 754 mmHg 57%
09:00 +27°C° 0 mm 4 mps 754 mmHg 53%
10:00 +28°C° 0 mm 4 mps 754 mmHg 49%
11:00 +29°C° 0 mm 4 mps 754 mmHg 44%
12:00 +30°C° 0 mm 5 mps 754 mmHg 40%
13:00 +32°C° 0 mm 5 mps 754 mmHg 36%
14:00 +29°C° 0 mm 5 mps 754 mmHg 41%
15:00 +27°C° 0 mm 5 mps 754 mmHg 46%
16:00 +26°C° 0 mm 5 mps 755 mmHg 51%
17:00 +23°C° 0.1 mm 4 mps 755 mmHg 59%
18:00 +22°C° 0.1 mm 3 mps 755 mmHg 68%
19:00 +21°C° 0.1 mm 3 mps 755 mmHg 76%
20:00 +20°C° 0 mm 3 mps 755 mmHg 82%
21:00 +19°C° 0 mm 3 mps 755 mmHg 87%
22:00 +18°C° 0 mm 3 mps 756 mmHg 93%
23:00 +18°C° 0 mm 2 mps 756 mmHg 94%

29 July, Thursday

Time Temperature Precipitation Wind Pressure Humidity
00:00 +17°C° 0 mm 2 mps 756 mmHg 95%
01:00 +17°C° 0 mm 2 mps 756 mmHg 95%
02:00 +17°C° 0 mm 2 mps 756 mmHg 95%
03:00 +17°C° 0 mm 2 mps 756 mmHg 95%
04:00 +16°C° 0 mm 2 mps 756 mmHg 95%
05:00 +18°C° 0 mm 2 mps 756 mmHg 87%
06:00 +19°C° 0 mm 2 mps 756 mmHg 80%
07:00 +21°C° 0 mm 2 mps 756 mmHg 73%
08:00 +24°C° 0 mm 3 mps 756 mmHg 64%
09:00 +25°C° 0 mm 3 mps 756 mmHg 56%
10:00 +27°C° 0 mm 3 mps 756 mmHg 48%
11:00 +28°C° 0 mm 4 mps 756 mmHg 45%
12:00 +29°C° 0 mm 4 mps 755 mmHg 42%
13:00 +29°C° 0 mm 4 mps 755 mmHg 39%
14:00 +29°C° 0 mm 3 mps 755 mmHg 41%
15:00 +28°C° 0 mm 3 mps 754 mmHg 43%
16:00 +28°C° 0 mm 2 mps 754 mmHg 45%
17:00 +27°C° 0 mm 2 mps 754 mmHg 48%
18:00 +27°C° 0 mm 2 mps 754 mmHg 50%
19:00 +26°C° 0 mm 1 mps 754 mmHg 53%
20:00 +25°C° 0 mm 1 mps 753 mmHg 54%
21:00 +24°C° 0 mm 1 mps 753 mmHg 56%
22:00 +23°C° 0 mm 1 mps 753 mmHg 57%
23:00 +23°C° 0 mm 1 mps 753 mmHg 58%

30 July, Friday

Time Temperature Precipitation Wind Pressure Humidity
00:00 +23°C° 0 mm 2 mps 753 mmHg 59%
01:00 +21°C° 0 mm 2 mps 752 mmHg 60%
02:00 +21°C° 0 mm 2 mps 752 mmHg 63%
03:00 +21°C° 0 mm 2 mps 752 mmHg 66%
04:00 +20°C° 0 mm 2 mps 752 mmHg 69%
05:00 +21°C° 0.3 mm 3 mps 752 mmHg 71%
06:00 +21°C° 0.3 mm 3 mps 752 mmHg 74%
07:00 +21°C° 0.3 mm 4 mps 752 mmHg 77%
08:00 +23°C° 0.5 mm 4 mps 751 mmHg 73%
09:00 +25°C° 0.5 mm 4 mps 751 mmHg 69%
10:00 +26°C° 0.5 mm 4 mps 751 mmHg 66%
11:00 +26°C° 0.4 mm 4 mps 751 mmHg 67%
12:00 +26°C° 0.4 mm 5 mps 750 mmHg 68%
13:00 +26°C° 0.4 mm 5 mps 750 mmHg 70%
14:00 +26°C° 0.4 mm 5 mps 750 mmHg 67%
15:00 +26°C° 0.4 mm 5 mps 751 mmHg 64%
16:00 +27°C° 0.4 mm 5 mps 751 mmHg 61%
17:00 +26°C° 0 mm 4 mps 751 mmHg 61%
18:00 +25°C° 0 mm 4 mps 751 mmHg 61%
19:00 +24°C° 0 mm 3 mps 751 mmHg 61%
20:00 +22°C° 0 mm 3 mps 751 mmHg 65%
21:00 +20°C° 0 mm 3 mps 751 mmHg 70%
22:00 +19°C° 0 mm 2 mps 752 mmHg 74%
23:00 +18°C° 0 mm 2 mps 752 mmHg 76%
Show more